owner,sensor,date,latitude,longitude,vertical_datum,sea_water_practical_salinity,qcFlag 
ENP,ioos.station.NOAA.NDBC:LBSF1:1,2017-09-01T00:00:00Z,25.2140,-80.4320,1.5,30.58,1111122 
ENP,ioos.station.NOAA.NDBC:LBSF1:1,2017-09-01T03:00:00Z,25.2140,-80.4320,1.5,30.75,1111122 
ENP,ioos.station.NOAA.NDBC:LBSF1:1,2017-09-01T06:00:00Z,25.2140,-80.4320,1.5,30.6,1111122 
ENP,ioos.station.NOAA.NDBC:LBSF1:1,2017-09-01T07:00:00Z,25.2140,-80.4320,1.5,30.53,1111122 
ENP,ioos.station.NOAA.NDBC:LBSF1:1,2017-09-01T08:00:00Z,25.2140,-80.4320,1.5,30.39,1111122 
ENP,ioos.station.NOAA.NDBC:LBSF1:1,2017-09-01T10:00:00Z,25.2140,-80.4320,1.5,30.46,1111122 
ENP,ioos.station.NOAA.NDBC:LBSF1:1,2017-09-01T11:00:00Z,25.2140,-80.4320,1.5,30.5,1111122 
ENP,ioos.station.NOAA.NDBC:LBSF1:1,2017-09-01T13:00:00Z,25.2140,-80.4320,1.5,30.51,1111122 
ENP,ioos.station.NOAA.NDBC:LBSF1:1,2017-09-01T14:00:00Z,25.2140,-80.4320,1.5,30.64,1111122 
ENP,ioos.station.NOAA.NDBC:LBSF1:1,2017-09-01T15:00:00Z,25.2140,-80.4320,1.5,30.71,1111122 
ENP,ioos.station.NOAA.NDBC:LBSF1:1,2017-09-01T17:00:00Z,25.2140,-80.4320,1.5,30.8,1111122 
ENP,ioos.station.NOAA.NDBC:LBSF1:1,2017-09-01T18:00:00Z,25.2140,-80.4320,1.5,30.8,1111122 
ENP,ioos.station.NOAA.NDBC:LBSF1:1,2017-09-01T19:00:00Z,25.2140,-80.4320,1.5,30.79,1111122 
ENP,ioos.station.NOAA.NDBC:LBSF1:1,2017-09-01T20:00:00Z,25.2140,-80.4320,1.5,30.78,1111122 
ENP,ioos.station.NOAA.NDBC:LBSF1:1,2017-09-01T21:00:00Z,25.2140,-80.4320,1.5,30.76,1111122 
ENP,ioos.station.NOAA.NDBC:LBSF1:1,2017-09-01T23:00:00Z,25.2140,-80.4320,1.5,30.64,1111122 
ENP,ioos.station.NOAA.NDBC:LBSF1:1,2017-09-02T00:00:00Z,25.2140,-80.4320,1.5,30.6,1111122 
ENP,ioos.station.NOAA.NDBC:LBSF1:1,2017-09-02T03:00:00Z,25.2140,-80.4320,1.5,30.55,1111122 
ENP,ioos.station.NOAA.NDBC:LBSF1:1,2017-09-02T06:00:00Z,25.2140,-80.4320,1.5,30.55,1111122 
ENP,ioos.station.NOAA.NDBC:LBSF1:1,2017-09-02T07:00:00Z,25.2140,-80.4320,1.5,30.54,1111122 
ENP,ioos.station.NOAA.NDBC:LBSF1:1,2017-09-02T08:00:00Z,25.2140,-80.4320,1.5,30.51,1111122 
ENP,ioos.station.NOAA.NDBC:LBSF1:1,2017-09-02T10:00:00Z,25.2140,-80.4320,1.5,30.34,1111122 
ENP,ioos.station.NOAA.NDBC:LBSF1:1,2017-09-02T11:00:00Z,25.2140,-80.4320,1.5,30.34,1111122 
ENP,ioos.station.NOAA.NDBC:LBSF1:1,2017-09-02T12:00:00Z,25.2140,-80.4320,1.5,30.11,1111122 
ENP,ioos.station.NOAA.NDBC:LBSF1:1,2017-09-02T13:00:00Z,25.2140,-80.4320,1.5,30.12,1111122 
ENP,ioos.station.NOAA.NDBC:LBSF1:1,2017-09-02T14:00:00Z,25.2140,-80.4320,1.5,30.16,1111122 
ENP,ioos.station.NOAA.NDBC:LBSF1:1,2017-09-02T15:00:00Z,25.2140,-80.4320,1.5,30.21,1111122 
ENP,ioos.station.NOAA.NDBC:LBSF1:1,2017-09-02T16:00:00Z,25.2140,-80.4320,1.5,30.26,1111122 
ENP,ioos.station.NOAA.NDBC:LBSF1:1,2017-09-02T17:00:00Z,25.2140,-80.4320,1.5,30.57,1111122 
ENP,ioos.station.NOAA.NDBC:LBSF1:1,2017-09-02T18:00:00Z,25.2140,-80.4320,1.5,30.97,1111122 
ENP,ioos.station.NOAA.NDBC:LBSF1:1,2017-09-02T19:00:00Z,25.2140,-80.4320,1.5,31.03,1111122 
ENP,ioos.station.NOAA.NDBC:LBSF1:1,2017-09-02T20:00:00Z,25.2140,-80.4320,1.5,31.03,1111122 
ENP,ioos.station.NOAA.NDBC:LBSF1:1,2017-09-02T21:00:00Z,25.2140,-80.4320,1.5,30.92,1111122 
ENP,ioos.station.NOAA.NDBC:LBSF1:1,2017-09-02T22:00:00Z,25.2140,-80.4320,1.5,30.79,1111122 
ENP,ioos.station.NOAA.NDBC:LBSF1:1,2017-09-02T23:00:00Z,25.2140,-80.4320,1.5,30.73,1111122 
ENP,ioos.station.NOAA.NDBC:LBSF1:1,2017-09-03T00:00:00Z,25.2140,-80.4320,1.5,30.67,1111122 
ENP,ioos.station.NOAA.NDBC:LBSF1:1,2017-09-03T03:00:00Z,25.2140,-80.4320,1.5,30.76,1111122 
ENP,ioos.station.NOAA.NDBC:LBSF1:1,2017-09-03T06:00:00Z,25.2140,-80.4320,1.5,31.07,1111122 
ENP,ioos.station.NOAA.NDBC:LBSF1:1,2017-09-03T07:00:00Z,25.2140,-80.4320,1.5,30.84,1111122 
ENP,ioos.station.NOAA.NDBC:LBSF1:1,2017-09-03T08:00:00Z,25.2140,-80.4320,1.5,30.81,1111122 
ENP,ioos.station.NOAA.NDBC:LBSF1:1,2017-09-03T11:00:00Z,25.2140,-80.4320,1.5,30.58,1111122 
ENP,ioos.station.NOAA.NDBC:LBSF1:1,2017-09-03T12:00:00Z,25.2140,-80.4320,1.5,29.8,1111122 
ENP,ioos.station.NOAA.NDBC:LBSF1:1,2017-09-03T13:00:00Z,25.2140,-80.4320,1.5,29.51,1111122 
ENP,ioos.station.NOAA.NDBC:LBSF1:1,2017-09-03T14:00:00Z,25.2140,-80.4320,1.5,29.49,1111122 
ENP,ioos.station.NOAA.NDBC:LBSF1:1,2017-09-03T15:00:00Z,25.2140,-80.4320,1.5,29.48,1111122 
ENP,ioos.station.NOAA.NDBC:LBSF1:1,2017-09-03T16:00:00Z,25.2140,-80.4320,1.5,30.93,1111122 
ENP,ioos.station.NOAA.NDBC:LBSF1:1,2017-09-03T17:00:00Z,25.2140,-80.4320,1.5,31.28,1111122 
ENP,ioos.station.NOAA.NDBC:LBSF1:1,2017-09-03T19:00:00Z,25.2140,-80.4320,1.5,31.53,1111122 
ENP,ioos.station.NOAA.NDBC:LBSF1:1,2017-09-03T20:00:00Z,25.2140,-80.4320,1.5,31.35,1111122 
ENP,ioos.station.NOAA.NDBC:LBSF1:1,2017-09-03T21:00:00Z,25.2140,-80.4320,1.5,31.28,1111122 
ENP,ioos.station.NOAA.NDBC:LBSF1:1,2017-09-03T22:00:00Z,25.2140,-80.4320,1.5,31.22,1111122 
ENP,ioos.station.NOAA.NDBC:LBSF1:1,2017-09-03T23:00:00Z,25.2140,-80.4320,1.5,31.18,1111122 
ENP,ioos.station.NOAA.NDBC:LBSF1:1,2017-09-04T00:00:00Z,25.2140,-80.4320,1.5,31.21,1111122 
ENP,ioos.station.NOAA.NDBC:LBSF1:1,2017-09-04T03:00:00Z,25.2140,-80.4320,1.5,31.22,1111122 
ENP,ioos.station.NOAA.NDBC:LBSF1:1,2017-09-04T06:00:00Z,25.2140,-80.4320,1.5,31.19,1111122 
ENP,ioos.station.NOAA.NDBC:LBSF1:1,2017-09-04T07:00:00Z,25.2140,-80.4320,1.5,31.21,1111122 
ENP,ioos.station.NOAA.NDBC:LBSF1:1,2017-09-04T11:00:00Z,25.2140,-80.4320,1.5,31.06,1111122 
ENP,ioos.station.NOAA.NDBC:LBSF1:1,2017-09-04T13:00:00Z,25.2140,-80.4320,1.5,30.58,1111122 
ENP,ioos.station.NOAA.NDBC:LBSF1:1,2017-09-04T14:00:00Z,25.2140,-80.4320,1.5,30.91,1111122 
ENP,ioos.station.NOAA.NDBC:LBSF1:1,2017-09-04T15:00:00Z,25.2140,-80.4320,1.5,30.95,1111122 
ENP,ioos.station.NOAA.NDBC:LBSF1:1,2017-09-04T16:00:00Z,25.2140,-80.4320,1.5,31.0,1111122 
ENP,ioos.station.NOAA.NDBC:LBSF1:1,2017-09-04T17:00:00Z,25.2140,-80.4320,1.5,30.99,1111122 
ENP,ioos.station.NOAA.NDBC:LBSF1:1,2017-09-04T19:00:00Z,25.2140,-80.4320,1.5,30.95,1111122 
ENP,ioos.station.NOAA.NDBC:LBSF1:1,2017-09-04T20:00:00Z,25.2140,-80.4320,1.5,30.94,1111122 
ENP,ioos.station.NOAA.NDBC:LBSF1:1,2017-09-04T21:00:00Z,25.2140,-80.4320,1.5,30.96,1111122 
ENP,ioos.station.NOAA.NDBC:LBSF1:1,2017-09-04T23:00:00Z,25.2140,-80.4320,1.5,30.95,1111122 
ENP,ioos.station.NOAA.NDBC:LBSF1:1,2017-09-05T03:00:00Z,25.2140,-80.4320,1.5,30.92,1111122 
ENP,ioos.station.NOAA.NDBC:LBSF1:1,2017-09-05T06:00:00Z,25.2140,-80.4320,1.5,30.76,1111122 
ENP,ioos.station.NOAA.NDBC:LBSF1:1,2017-09-05T07:00:00Z,25.2140,-80.4320,1.5,30.73,1111122 
ENP,ioos.station.NOAA.NDBC:LBSF1:1,2017-09-05T10:00:00Z,25.2140,-80.4320,1.5,30.79,1111122 
ENP,ioos.station.NOAA.NDBC:LBSF1:1,2017-09-05T11:00:00Z,25.2140,-80.4320,1.5,30.77,1111122 
ENP,ioos.station.NOAA.NDBC:LBSF1:1,2017-09-05T13:00:00Z,25.2140,-80.4320,1.5,30.73,1111122 
ENP,ioos.station.NOAA.NDBC:LBSF1:1,2017-09-05T14:00:00Z,25.2140,-80.4320,1.5,30.72,1111122 
ENP,ioos.station.NOAA.NDBC:LBSF1:1,2017-09-05T15:00:00Z,25.2140,-80.4320,1.5,30.76,1111122 
ENP,ioos.station.NOAA.NDBC:LBSF1:1,2017-09-05T17:00:00Z,25.2140,-80.4320,1.5,31.15,1111122 
ENP,ioos.station.NOAA.NDBC:LBSF1:1,2017-09-05T18:00:00Z,25.2140,-80.4320,1.5,31.45,1111122 
ENP,ioos.station.NOAA.NDBC:LBSF1:1,2017-09-05T20:00:00Z,25.2140,-80.4320,1.5,31.45,1111122 
ENP,ioos.station.NOAA.NDBC:LBSF1:1,2017-09-05T23:00:00Z,25.2140,-80.4320,1.5,31.31,1111122 
ENP,ioos.station.NOAA.NDBC:LBSF1:1,2017-09-06T10:00:00Z,25.2140,-80.4320,1.5,31.05,1111122 
ENP,ioos.station.NOAA.NDBC:LBSF1:1,2017-09-19T07:00:00Z,25.2140,-80.4320,1.5,13.9,1111122 
ENP,ioos.station.NOAA.NDBC:LBSF1:1,2017-09-19T08:00:00Z,25.2140,-80.4320,1.5,13.9,1111122 
ENP,ioos.station.NOAA.NDBC:LBSF1:1,2017-09-19T16:00:00Z,25.2140,-80.4320,1.5,13.85,1111122 
ENP,ioos.station.NOAA.NDBC:LBSF1:1,2017-09-19T17:00:00Z,25.2140,-80.4320,1.5,13.61,1111122 
ENP,ioos.station.NOAA.NDBC:LBSF1:1,2017-09-19T18:00:00Z,25.2140,-80.4320,1.5,13.51,1111122 
ENP,ioos.station.NOAA.NDBC:LBSF1:1,2017-09-19T19:00:00Z,25.2140,-80.4320,1.5,13.49,1111122 
ENP,ioos.station.NOAA.NDBC:LBSF1:1,2017-09-19T20:00:00Z,25.2140,-80.4320,1.5,13.49,1111122 
ENP,ioos.station.NOAA.NDBC:LBSF1:1,2017-09-19T21:00:00Z,25.2140,-80.4320,1.5,13.51,1111122 
ENP,ioos.station.NOAA.NDBC:LBSF1:1,2017-09-19T22:00:00Z,25.2140,-80.4320,1.5,13.63,1111122 
ENP,ioos.station.NOAA.NDBC:LBSF1:1,2017-09-20T02:00:00Z,25.2140,-80.4320,1.5,13.63,1111122 
ENP,ioos.station.NOAA.NDBC:LBSF1:1,2017-09-20T05:00:00Z,25.2140,-80.4320,1.5,13.68,1111122 
ENP,ioos.station.NOAA.NDBC:LBSF1:1,2017-09-20T08:00:00Z,25.2140,-80.4320,1.5,13.69,1111122 
ENP,ioos.station.NOAA.NDBC:LBSF1:1,2017-09-20T10:00:00Z,25.2140,-80.4320,1.5,13.59,1111122 
ENP,ioos.station.NOAA.NDBC:LBSF1:1,2017-09-20T16:00:00Z,25.2140,-80.4320,1.5,13.65,1111122 
ENP,ioos.station.NOAA.NDBC:LBSF1:1,2017-09-20T17:00:00Z,25.2140,-80.4320,1.5,13.8,1111122 
ENP,ioos.station.NOAA.NDBC:LBSF1:1,2017-09-20T18:00:00Z,25.2140,-80.4320,1.5,13.8,1111122 
ENP,ioos.station.NOAA.NDBC:LBSF1:1,2017-09-20T19:00:00Z,25.2140,-80.4320,1.5,13.8,1111122 
ENP,ioos.station.NOAA.NDBC:LBSF1:1,2017-09-20T20:00:00Z,25.2140,-80.4320,1.5,13.59,1111122 
ENP,ioos.station.NOAA.NDBC:LBSF1:1,2017-09-20T21:00:00Z,25.2140,-80.4320,1.5,13.65,1111122 
ENP,ioos.station.NOAA.NDBC:LBSF1:1,2017-09-20T22:00:00Z,25.2140,-80.4320,1.5,13.49,1111122 
ENP,ioos.station.NOAA.NDBC:LBSF1:1,2017-09-20T23:00:00Z,25.2140,-80.4320,1.5,13.61,1111122 
ENP,ioos.station.NOAA.NDBC:LBSF1:1,2017-09-21T00:00:00Z,25.2140,-80.4320,1.5,13.78,1111122 
ENP,ioos.station.NOAA.NDBC:LBSF1:1,2017-09-21T02:00:00Z,25.2140,-80.4320,1.5,14.29,1111122 
ENP,ioos.station.NOAA.NDBC:LBSF1:1,2017-09-21T03:00:00Z,25.2140,-80.4320,1.5,14.68,1111122 
ENP,ioos.station.NOAA.NDBC:LBSF1:1,2017-09-21T05:00:00Z,25.2140,-80.4320,1.5,14.62,1111122 
ENP,ioos.station.NOAA.NDBC:LBSF1:1,2017-09-21T06:00:00Z,25.2140,-80.4320,1.5,14.77,1111122 
ENP,ioos.station.NOAA.NDBC:LBSF1:1,2017-09-21T07:00:00Z,25.2140,-80.4320,1.5,14.25,1111122 
ENP,ioos.station.NOAA.NDBC:LBSF1:1,2017-09-21T08:00:00Z,25.2140,-80.4320,1.5,13.91,1111122 
ENP,ioos.station.NOAA.NDBC:LBSF1:1,2017-09-21T10:00:00Z,25.2140,-80.4320,1.5,13.79,1111122 
ENP,ioos.station.NOAA.NDBC:LBSF1:1,2017-09-21T11:00:00Z,25.2140,-80.4320,1.5,13.72,1111122 
ENP,ioos.station.NOAA.NDBC:LBSF1:1,2017-09-21T12:00:00Z,25.2140,-80.4320,1.5,13.68,1111122 
ENP,ioos.station.NOAA.NDBC:LBSF1:1,2017-09-21T13:00:00Z,25.2140,-80.4320,1.5,13.65,1111122 
ENP,ioos.station.NOAA.NDBC:LBSF1:1,2017-09-21T14:00:00Z,25.2140,-80.4320,1.5,13.59,1111122 
ENP,ioos.station.NOAA.NDBC:LBSF1:1,2017-09-21T15:00:00Z,25.2140,-80.4320,1.5,13.53,1111122 
ENP,ioos.station.NOAA.NDBC:LBSF1:1,2017-09-21T16:00:00Z,25.2140,-80.4320,1.5,13.52,1111122 
ENP,ioos.station.NOAA.NDBC:LBSF1:1,2017-09-21T17:00:00Z,25.2140,-80.4320,1.5,14.87,1111122 
ENP,ioos.station.NOAA.NDBC:LBSF1:1,2017-09-21T18:00:00Z,25.2140,-80.4320,1.5,14.51,1111122 
ENP,ioos.station.NOAA.NDBC:LBSF1:1,2017-09-21T19:00:00Z,25.2140,-80.4320,1.5,14.31,1111122 
ENP,ioos.station.NOAA.NDBC:LBSF1:1,2017-09-21T20:00:00Z,25.2140,-80.4320,1.5,14.14,1111122 
ENP,ioos.station.NOAA.NDBC:LBSF1:1,2017-09-21T21:00:00Z,25.2140,-80.4320,1.5,14.08,1111122 
ENP,ioos.station.NOAA.NDBC:LBSF1:1,2017-09-21T22:00:00Z,25.2140,-80.4320,1.5,15.2,1111122 
ENP,ioos.station.NOAA.NDBC:LBSF1:1,2017-09-21T23:00:00Z,25.2140,-80.4320,1.5,16.19,1111122 
ENP,ioos.station.NOAA.NDBC:LBSF1:1,2017-09-22T00:00:00Z,25.2140,-80.4320,1.5,17.68,1111122 
ENP,ioos.station.NOAA.NDBC:LBSF1:1,2017-09-22T02:00:00Z,25.2140,-80.4320,1.5,19.2,1111122 
ENP,ioos.station.NOAA.NDBC:LBSF1:1,2017-09-22T03:00:00Z,25.2140,-80.4320,1.5,20.33,1111122 
ENP,ioos.station.NOAA.NDBC:LBSF1:1,2017-09-22T05:00:00Z,25.2140,-80.4320,1.5,19.59,1111122 
ENP,ioos.station.NOAA.NDBC:LBSF1:1,2017-09-22T06:00:00Z,25.2140,-80.4320,1.5,19.56,1111122 
ENP,ioos.station.NOAA.NDBC:LBSF1:1,2017-09-22T07:00:00Z,25.2140,-80.4320,1.5,18.17,1111122 
ENP,ioos.station.NOAA.NDBC:LBSF1:1,2017-09-22T08:00:00Z,25.2140,-80.4320,1.5,17.69,1111122 
ENP,ioos.station.NOAA.NDBC:LBSF1:1,2017-09-22T10:00:00Z,25.2140,-80.4320,1.5,14.54,1111122 
ENP,ioos.station.NOAA.NDBC:LBSF1:1,2017-09-22T11:00:00Z,25.2140,-80.4320,1.5,14.04,1111122 
ENP,ioos.station.NOAA.NDBC:LBSF1:1,2017-09-22T12:00:00Z,25.2140,-80.4320,1.5,13.88,1111122 
ENP,ioos.station.NOAA.NDBC:LBSF1:1,2017-09-22T13:00:00Z,25.2140,-80.4320,1.5,13.76,1111122 
ENP,ioos.station.NOAA.NDBC:LBSF1:1,2017-09-22T14:00:00Z,25.2140,-80.4320,1.5,14.05,1111122 
ENP,ioos.station.NOAA.NDBC:LBSF1:1,2017-09-22T15:00:00Z,25.2140,-80.4320,1.5,13.92,1111122 
ENP,ioos.station.NOAA.NDBC:LBSF1:1,2017-09-22T16:00:00Z,25.2140,-80.4320,1.5,13.94,1111122 
ENP,ioos.station.NOAA.NDBC:LBSF1:1,2017-09-22T17:00:00Z,25.2140,-80.4320,1.5,14.05,1111122 
ENP,ioos.station.NOAA.NDBC:LBSF1:1,2017-09-22T18:00:00Z,25.2140,-80.4320,1.5,14.23,1111122 
ENP,ioos.station.NOAA.NDBC:LBSF1:1,2017-09-22T19:00:00Z,25.2140,-80.4320,1.5,15.84,1111122 
ENP,ioos.station.NOAA.NDBC:LBSF1:1,2017-09-22T20:00:00Z,25.2140,-80.4320,1.5,14.83,1111122 
ENP,ioos.station.NOAA.NDBC:LBSF1:1,2017-09-22T21:00:00Z,25.2140,-80.4320,1.5,14.49,1111122 
ENP,ioos.station.NOAA.NDBC:LBSF1:1,2017-09-22T22:00:00Z,25.2140,-80.4320,1.5,14.41,1111122 
ENP,ioos.station.NOAA.NDBC:LBSF1:1,2017-09-22T23:00:00Z,25.2140,-80.4320,1.5,14.35,1111122 
ENP,ioos.station.NOAA.NDBC:LBSF1:1,2017-09-23T00:00:00Z,25.2140,-80.4320,1.5,14.33,1111122 
ENP,ioos.station.NOAA.NDBC:LBSF1:1,2017-09-23T02:00:00Z,25.2140,-80.4320,1.5,14.29,1111122 
ENP,ioos.station.NOAA.NDBC:LBSF1:1,2017-09-23T03:00:00Z,25.2140,-80.4320,1.5,14.19,1111122 
ENP,ioos.station.NOAA.NDBC:LBSF1:1,2017-09-23T05:00:00Z,25.2140,-80.4320,1.5,14.01,1111122 
ENP,ioos.station.NOAA.NDBC:LBSF1:1,2017-09-23T06:00:00Z,25.2140,-80.4320,1.5,14.07,1111122 
ENP,ioos.station.NOAA.NDBC:LBSF1:1,2017-09-23T07:00:00Z,25.2140,-80.4320,1.5,14.07,1111122 
ENP,ioos.station.NOAA.NDBC:LBSF1:1,2017-09-23T08:00:00Z,25.2140,-80.4320,1.5,13.92,1111122 
ENP,ioos.station.NOAA.NDBC:LBSF1:1,2017-09-23T10:00:00Z,25.2140,-80.4320,1.5,13.38,1111122 
ENP,ioos.station.NOAA.NDBC:LBSF1:1,2017-09-23T11:00:00Z,25.2140,-80.4320,1.5,12.98,1111122 
ENP,ioos.station.NOAA.NDBC:LBSF1:1,2017-09-23T12:00:00Z,25.2140,-80.4320,1.5,12.88,1111122 
ENP,ioos.station.NOAA.NDBC:LBSF1:1,2017-09-23T13:00:00Z,25.2140,-80.4320,1.5,12.86,1111122 
ENP,ioos.station.NOAA.NDBC:LBSF1:1,2017-09-23T14:00:00Z,25.2140,-80.4320,1.5,12.86,1111122 
ENP,ioos.station.NOAA.NDBC:LBSF1:1,2017-09-23T15:00:00Z,25.2140,-80.4320,1.5,12.85,1111122 
ENP,ioos.station.NOAA.NDBC:LBSF1:1,2017-09-23T16:00:00Z,25.2140,-80.4320,1.5,12.83,1111122 
ENP,ioos.station.NOAA.NDBC:LBSF1:1,2017-09-23T17:00:00Z,25.2140,-80.4320,1.5,12.85,1111122 
ENP,ioos.station.NOAA.NDBC:LBSF1:1,2017-09-23T18:00:00Z,25.2140,-80.4320,1.5,13.0,1111122 
ENP,ioos.station.NOAA.NDBC:LBSF1:1,2017-09-23T19:00:00Z,25.2140,-80.4320,1.5,12.83,1111122 
ENP,ioos.station.NOAA.NDBC:LBSF1:1,2017-09-23T20:00:00Z,25.2140,-80.4320,1.5,13.19,1111122 
ENP,ioos.station.NOAA.NDBC:LBSF1:1,2017-09-23T21:00:00Z,25.2140,-80.4320,1.5,13.53,1111122 
ENP,ioos.station.NOAA.NDBC:LBSF1:1,2017-09-23T22:00:00Z,25.2140,-80.4320,1.5,13.82,1111122 
ENP,ioos.station.NOAA.NDBC:LBSF1:1,2017-09-23T23:00:00Z,25.2140,-80.4320,1.5,13.92,1111122 
ENP,ioos.station.NOAA.NDBC:LBSF1:1,2017-09-24T00:00:00Z,25.2140,-80.4320,1.5,13.81,1111122 
ENP,ioos.station.NOAA.NDBC:LBSF1:1,2017-09-24T02:00:00Z,25.2140,-80.4320,1.5,13.7,1111122 
ENP,ioos.station.NOAA.NDBC:LBSF1:1,2017-09-24T03:00:00Z,25.2140,-80.4320,1.5,13.65,1111122 
ENP,ioos.station.NOAA.NDBC:LBSF1:1,2017-09-24T05:00:00Z,25.2140,-80.4320,1.5,13.61,1111122 
ENP,ioos.station.NOAA.NDBC:LBSF1:1,2017-09-24T06:00:00Z,25.2140,-80.4320,1.5,13.61,1111122 
ENP,ioos.station.NOAA.NDBC:LBSF1:1,2017-09-24T07:00:00Z,25.2140,-80.4320,1.5,13.61,1111122 
ENP,ioos.station.NOAA.NDBC:LBSF1:1,2017-09-24T08:00:00Z,25.2140,-80.4320,1.5,13.63,1111122 
ENP,ioos.station.NOAA.NDBC:LBSF1:1,2017-09-24T10:00:00Z,25.2140,-80.4320,1.5,13.7,1111122 
ENP,ioos.station.NOAA.NDBC:LBSF1:1,2017-09-24T11:00:00Z,25.2140,-80.4320,1.5,13.73,1111122 
ENP,ioos.station.NOAA.NDBC:LBSF1:1,2017-09-24T12:00:00Z,25.2140,-80.4320,1.5,13.73,1111122 
ENP,ioos.station.NOAA.NDBC:LBSF1:1,2017-09-24T13:00:00Z,25.2140,-80.4320,1.5,13.74,1111122 
ENP,ioos.station.NOAA.NDBC:LBSF1:1,2017-09-24T14:00:00Z,25.2140,-80.4320,1.5,13.74,1111122 
ENP,ioos.station.NOAA.NDBC:LBSF1:1,2017-09-24T15:00:00Z,25.2140,-80.4320,1.5,13.74,1111122 
ENP,ioos.station.NOAA.NDBC:LBSF1:1,2017-09-24T16:00:00Z,25.2140,-80.4320,1.5,13.74,1111122 
ENP,ioos.station.NOAA.NDBC:LBSF1:1,2017-09-24T17:00:00Z,25.2140,-80.4320,1.5,13.74,1111122 
ENP,ioos.station.NOAA.NDBC:LBSF1:1,2017-09-24T18:00:00Z,25.2140,-80.4320,1.5,13.74,1111122 
ENP,ioos.station.NOAA.NDBC:LBSF1:1,2017-09-24T19:00:00Z,25.2140,-80.4320,1.5,13.74,1111122 
ENP,ioos.station.NOAA.NDBC:LBSF1:1,2017-09-24T20:00:00Z,25.2140,-80.4320,1.5,13.8,1111122 
ENP,ioos.station.NOAA.NDBC:LBSF1:1,2017-09-24T21:00:00Z,25.2140,-80.4320,1.5,14.17,1111122 
ENP,ioos.station.NOAA.NDBC:LBSF1:1,2017-09-24T22:00:00Z,25.2140,-80.4320,1.5,13.93,1111122 
ENP,ioos.station.NOAA.NDBC:LBSF1:1,2017-09-24T23:00:00Z,25.2140,-80.4320,1.5,13.78,1111122 
ENP,ioos.station.NOAA.NDBC:LBSF1:1,2017-09-25T00:00:00Z,25.2140,-80.4320,1.5,13.76,1111122 
ENP,ioos.station.NOAA.NDBC:LBSF1:1,2017-09-25T02:00:00Z,25.2140,-80.4320,1.5,13.77,1111122 
ENP,ioos.station.NOAA.NDBC:LBSF1:1,2017-09-25T03:00:00Z,25.2140,-80.4320,1.5,13.74,1111122 
ENP,ioos.station.NOAA.NDBC:LBSF1:1,2017-09-25T05:00:00Z,25.2140,-80.4320,1.5,13.76,1111122 
ENP,ioos.station.NOAA.NDBC:LBSF1:1,2017-09-25T06:00:00Z,25.2140,-80.4320,1.5,14.0,1111122 
ENP,ioos.station.NOAA.NDBC:LBSF1:1,2017-09-25T07:00:00Z,25.2140,-80.4320,1.5,14.17,1111122 
ENP,ioos.station.NOAA.NDBC:LBSF1:1,2017-09-25T08:00:00Z,25.2140,-80.4320,1.5,14.23,1111122 
ENP,ioos.station.NOAA.NDBC:LBSF1:1,2017-09-25T10:00:00Z,25.2140,-80.4320,1.5,13.98,1111122 
ENP,ioos.station.NOAA.NDBC:LBSF1:1,2017-09-25T11:00:00Z,25.2140,-80.4320,1.5,13.87,1111122 
ENP,ioos.station.NOAA.NDBC:LBSF1:1,2017-09-25T12:00:00Z,25.2140,-80.4320,1.5,13.82,1111122 
ENP,ioos.station.NOAA.NDBC:LBSF1:1,2017-09-25T13:00:00Z,25.2140,-80.4320,1.5,13.81,1111122 
ENP,ioos.station.NOAA.NDBC:LBSF1:1,2017-09-25T14:00:00Z,25.2140,-80.4320,1.5,13.9,1111122 
ENP,ioos.station.NOAA.NDBC:LBSF1:1,2017-09-25T15:00:00Z,25.2140,-80.4320,1.5,14.29,1111122 
ENP,ioos.station.NOAA.NDBC:LBSF1:1,2017-09-25T16:00:00Z,25.2140,-80.4320,1.5,14.17,1111122 
ENP,ioos.station.NOAA.NDBC:LBSF1:1,2017-09-25T17:00:00Z,25.2140,-80.4320,1.5,14.12,1111122 
ENP,ioos.station.NOAA.NDBC:LBSF1:1,2017-09-25T18:00:00Z,25.2140,-80.4320,1.5,14.1,1111122 
ENP,ioos.station.NOAA.NDBC:LBSF1:1,2017-09-25T19:00:00Z,25.2140,-80.4320,1.5,14.05,1111122 
ENP,ioos.station.NOAA.NDBC:LBSF1:1,2017-09-25T20:00:00Z,25.2140,-80.4320,1.5,13.98,1111122 
ENP,ioos.station.NOAA.NDBC:LBSF1:1,2017-09-25T21:00:00Z,25.2140,-80.4320,1.5,13.81,1111122 
ENP,ioos.station.NOAA.NDBC:LBSF1:1,2017-09-25T22:00:00Z,25.2140,-80.4320,1.5,13.81,1111122 
ENP,ioos.station.NOAA.NDBC:LBSF1:1,2017-09-25T23:00:00Z,25.2140,-80.4320,1.5,13.8,1111122 
ENP,ioos.station.NOAA.NDBC:LBSF1:1,2017-09-26T00:00:00Z,25.2140,-80.4320,1.5,13.78,1111122 
ENP,ioos.station.NOAA.NDBC:LBSF1:1,2017-09-26T02:00:00Z,25.2140,-80.4320,1.5,13.82,1111122 
ENP,ioos.station.NOAA.NDBC:LBSF1:1,2017-09-26T03:00:00Z,25.2140,-80.4320,1.5,13.82,1111122 
ENP,ioos.station.NOAA.NDBC:LBSF1:1,2017-09-26T05:00:00Z,25.2140,-80.4320,1.5,13.75,1111122 
ENP,ioos.station.NOAA.NDBC:LBSF1:1,2017-09-26T06:00:00Z,25.2140,-80.4320,1.5,13.71,1111122 
ENP,ioos.station.NOAA.NDBC:LBSF1:1,2017-09-26T07:00:00Z,25.2140,-80.4320,1.5,13.69,1111122 
ENP,ioos.station.NOAA.NDBC:LBSF1:1,2017-09-26T08:00:00Z,25.2140,-80.4320,1.5,13.73,1111122 
ENP,ioos.station.NOAA.NDBC:LBSF1:1,2017-09-26T10:00:00Z,25.2140,-80.4320,1.5,13.73,1111122 
ENP,ioos.station.NOAA.NDBC:LBSF1:1,2017-09-26T11:00:00Z,25.2140,-80.4320,1.5,13.77,1111122 
ENP,ioos.station.NOAA.NDBC:LBSF1:1,2017-09-26T12:00:00Z,25.2140,-80.4320,1.5,13.8,1111122 
ENP,ioos.station.NOAA.NDBC:LBSF1:1,2017-09-26T13:00:00Z,25.2140,-80.4320,1.5,13.79,1111122 
ENP,ioos.station.NOAA.NDBC:LBSF1:1,2017-09-26T14:00:00Z,25.2140,-80.4320,1.5,13.79,1111122 
ENP,ioos.station.NOAA.NDBC:LBSF1:1,2017-09-26T15:00:00Z,25.2140,-80.4320,1.5,13.8,1111122 
ENP,ioos.station.NOAA.NDBC:LBSF1:1,2017-09-26T16:00:00Z,25.2140,-80.4320,1.5,13.8,1111122 
ENP,ioos.station.NOAA.NDBC:LBSF1:1,2017-09-26T17:00:00Z,25.2140,-80.4320,1.5,13.8,1111122 
ENP,ioos.station.NOAA.NDBC:LBSF1:1,2017-09-26T18:00:00Z,25.2140,-80.4320,1.5,13.85,1111122 
ENP,ioos.station.NOAA.NDBC:LBSF1:1,2017-09-26T19:00:00Z,25.2140,-80.4320,1.5,13.87,1111122 
ENP,ioos.station.NOAA.NDBC:LBSF1:1,2017-09-26T20:00:00Z,25.2140,-80.4320,1.5,13.93,1111122 
ENP,ioos.station.NOAA.NDBC:LBSF1:1,2017-09-26T21:00:00Z,25.2140,-80.4320,1.5,14.0,1111122 
ENP,ioos.station.NOAA.NDBC:LBSF1:1,2017-09-26T22:00:00Z,25.2140,-80.4320,1.5,14.04,1111122 
ENP,ioos.station.NOAA.NDBC:LBSF1:1,2017-09-26T23:00:00Z,25.2140,-80.4320,1.5,14.07,1111122 
ENP,ioos.station.NOAA.NDBC:LBSF1:1,2017-09-27T00:00:00Z,25.2140,-80.4320,1.5,14.14,1111122 
ENP,ioos.station.NOAA.NDBC:LBSF1:1,2017-09-27T02:00:00Z,25.2140,-80.4320,1.5,14.16,1111122 
ENP,ioos.station.NOAA.NDBC:LBSF1:1,2017-09-27T03:00:00Z,25.2140,-80.4320,1.5,14.17,1111122 
ENP,ioos.station.NOAA.NDBC:LBSF1:1,2017-09-27T05:00:00Z,25.2140,-80.4320,1.5,14.21,1111122 
ENP,ioos.station.NOAA.NDBC:LBSF1:1,2017-09-27T06:00:00Z,25.2140,-80.4320,1.5,14.23,1111122 
ENP,ioos.station.NOAA.NDBC:LBSF1:1,2017-09-27T07:00:00Z,25.2140,-80.4320,1.5,14.23,1111122 
ENP,ioos.station.NOAA.NDBC:LBSF1:1,2017-09-27T08:00:00Z,25.2140,-80.4320,1.5,14.25,1111122 
ENP,ioos.station.NOAA.NDBC:LBSF1:1,2017-09-27T10:00:00Z,25.2140,-80.4320,1.5,14.33,1111122 
ENP,ioos.station.NOAA.NDBC:LBSF1:1,2017-09-27T11:00:00Z,25.2140,-80.4320,1.5,14.39,1111122 
ENP,ioos.station.NOAA.NDBC:LBSF1:1,2017-09-27T12:00:00Z,25.2140,-80.4320,1.5,14.43,1111122 
ENP,ioos.station.NOAA.NDBC:LBSF1:1,2017-09-27T13:00:00Z,25.2140,-80.4320,1.5,14.47,1111122 
ENP,ioos.station.NOAA.NDBC:LBSF1:1,2017-09-27T14:00:00Z,25.2140,-80.4320,1.5,14.51,1111122 
ENP,ioos.station.NOAA.NDBC:LBSF1:1,2017-09-27T15:00:00Z,25.2140,-80.4320,1.5,14.53,1111122 
ENP,ioos.station.NOAA.NDBC:LBSF1:1,2017-09-27T16:00:00Z,25.2140,-80.4320,1.5,14.35,1111122 
ENP,ioos.station.NOAA.NDBC:LBSF1:1,2017-09-27T17:00:00Z,25.2140,-80.4320,1.5,14.11,1111122 
ENP,ioos.station.NOAA.NDBC:LBSF1:1,2017-09-27T18:00:00Z,25.2140,-80.4320,1.5,14.15,1111122 
ENP,ioos.station.NOAA.NDBC:LBSF1:1,2017-09-27T19:00:00Z,25.2140,-80.4320,1.5,14.16,1111122 
ENP,ioos.station.NOAA.NDBC:LBSF1:1,2017-09-27T20:00:00Z,25.2140,-80.4320,1.5,14.17,1111122 
ENP,ioos.station.NOAA.NDBC:LBSF1:1,2017-09-27T21:00:00Z,25.2140,-80.4320,1.5,14.11,1111122 
ENP,ioos.station.NOAA.NDBC:LBSF1:1,2017-09-27T22:00:00Z,25.2140,-80.4320,1.5,13.88,1111122 
ENP,ioos.station.NOAA.NDBC:LBSF1:1,2017-09-27T23:00:00Z,25.2140,-80.4320,1.5,12.88,1111122 
ENP,ioos.station.NOAA.NDBC:LBSF1:1,2017-09-28T00:00:00Z,25.2140,-80.4320,1.5,12.64,1111122 
ENP,ioos.station.NOAA.NDBC:LBSF1:1,2017-09-28T02:00:00Z,25.2140,-80.4320,1.5,12.73,1111122 
ENP,ioos.station.NOAA.NDBC:LBSF1:1,2017-09-28T03:00:00Z,25.2140,-80.4320,1.5,13.71,1111122 
ENP,ioos.station.NOAA.NDBC:LBSF1:1,2017-09-28T05:00:00Z,25.2140,-80.4320,1.5,14.9,1111122 
ENP,ioos.station.NOAA.NDBC:LBSF1:1,2017-09-28T06:00:00Z,25.2140,-80.4320,1.5,15.06,1111122 
ENP,ioos.station.NOAA.NDBC:LBSF1:1,2017-09-28T07:00:00Z,25.2140,-80.4320,1.5,15.08,1111122 
ENP,ioos.station.NOAA.NDBC:LBSF1:1,2017-09-28T08:00:00Z,25.2140,-80.4320,1.5,14.38,1111122 
ENP,ioos.station.NOAA.NDBC:LBSF1:1,2017-09-28T10:00:00Z,25.2140,-80.4320,1.5,13.99,1111122 
ENP,ioos.station.NOAA.NDBC:LBSF1:1,2017-09-28T11:00:00Z,25.2140,-80.4320,1.5,13.84,1111122 
ENP,ioos.station.NOAA.NDBC:LBSF1:1,2017-09-28T12:00:00Z,25.2140,-80.4320,1.5,13.79,1111122 
ENP,ioos.station.NOAA.NDBC:LBSF1:1,2017-09-28T13:00:00Z,25.2140,-80.4320,1.5,13.77,1111122 
ENP,ioos.station.NOAA.NDBC:LBSF1:1,2017-09-28T15:00:00Z,25.2140,-80.4320,1.5,13.94,1111122 
ENP,ioos.station.NOAA.NDBC:LBSF1:1,2017-09-28T16:00:00Z,25.2140,-80.4320,1.5,14.23,1111122 